DW6513 Weather Reports


time (UTC)temp
C
wind
direction
speed
KPH
gust
KPH
rain 1hr
cm
rain 24hr
cm
rain mn
cm
humidity
%
barometer
mb
20260506204803 18 100 8.0 16.1 0.00 0.18 0.48 37 1015.3
20260506204303 18 202 8.0 16.1 0.00 0.18 0.48 36 1015.3
20260506203804 20 33 8.0 14.5 0.00 0.18 0.48 36 1015.3
20260506203303 19 347 8.0 14.5 0.00 0.18 0.48 36 1015.3
20260506202803 19 100 8.0 14.5 0.00 0.18 0.48 35 1015.5
20260506202306 19 0 8.0 27.4 0.00 0.18 0.48 36 1015.5
20260506201803 20 145 4.8 11.3 0.00 0.18 0.48 37 1015.5
20260506201303 19 328 4.8 19.3 0.00 0.18 0.48 37 1015.5
20260506200804 18 347 8.0 9.7 0.00 0.18 0.48 37 1015.5
20260506200303 18 290 4.8 11.3 0.00 0.18 0.48 38 1015.5
20260506195803 17 303 4.8 12.9 0.00 0.18 0.48 37 1015.5
20260506195305 18 334 9.7 14.5 0.00 0.18 0.48 37 1015.5
20260506194804 17 10 9.7 25.7 0.00 0.18 0.48 34 1015.7
20260506194304 18 334 8.0 25.7 0.00 0.18 0.48 36 1015.7
20260506193803 18 190 8.0 19.3 0.00 0.18 0.48 36 1015.7
20260506193304 18 272 8.0 11.3 0.00 0.18 0.48 36 1015.7
20260506192305 18 321 9.7 16.1 0.00 0.18 0.48 37 1015.7
20260506191803 18 325 9.7 16.1 0.00 0.18 0.48 37 1015.7
20260506191303 18 85 8.0 9.7 0.00 0.18 0.48 39 1015.7
20260506190804 18 190 4.8 8.0 0.00 0.18 0.48 39 1015.7
20260506190303 18 294 3.2 11.3 0.00 0.18 0.48 42 1015.7
20260506185803 16 33 4.8 11.3 0.00 0.18 0.48 42 1015.7
20260506185306 17 333 6.4 8.0 0.00 0.18 0.48 42 1015.7
20260506184803 17 347 4.8 19.3 0.00 0.18 0.48 41 1015.7
20260506184303 18 153 8.0 11.3 0.00 0.18 0.48 42 1015.7
20260506183803 17 325 8.0 16.1 0.00 0.18 0.48 40 1015.7
20260506183304 17 327 6.4 14.5 0.00 0.18 0.48 41 1015.7
20260506182803 17 167 4.8 8.0 0.00 0.18 0.48 45 1016.2
20260506182306 17 107 8.0 14.5 0.00 0.18 0.48 44 1016.2
20260506181303 17 321 4.8 16.1 0.00 0.18 0.48 47 1016.2
20260506175803 16 257 8.0 24.1 0.00 0.18 0.48 54 1016.4
20260506175306 16 321 9.7 24.1 0.00 0.18 0.48 54 1016.4
20260506174304 15 12 4.8 24.1 0.00 0.18 0.48 57 1016.4
20260506173804 15 347 3.2 24.1 0.00 0.18 0.48 58 1016.4
20260506172803 14 10 4.8 11.3 0.00 0.18 0.48 61 1016.6
20260506172306 14 304 8.0 14.5 0.00 0.18 0.48 64 1016.6
20260506171803 13 190 9.7 19.3 0.00 0.18 0.48 63 1016.6
20260506171303 13 0 8.0 19.3 0.00 0.18 0.48 63 1016.6
20260506170803 13 347 4.8 12.9 0.00 0.18 0.48 65 1016.3
20260506170303 13 22 4.8 14.5 0.00 0.18 0.48 65 1016.3
20260506165803 13 347 3.2 8.0 0.00 0.18 0.48 68 1016.3
20260506165305 13 340 3.2 8.0 0.00 0.18 0.48 68 1016.3
20260506164804 13 303 4.8 8.0 0.00 0.18 0.48 70 1016.5
20260506164303 13 303 3.2 12.9 0.00 0.18 0.48 69 1016.5
20260506163804 13 100 3.2 12.9 0.00 0.18 0.48 71 1016.5
20260506163304 13 77 4.8 11.3 0.00 0.18 0.48 71 1016.5
20260506162803 12 347 3.2 12.9 0.00 0.18 0.48 73 1016.3
20260506162306 12 214 3.2 12.9 0.00 0.18 0.48 74 1016.3
20260506161803 12 100 1.6 11.3 0.00 0.18 0.48 76 1016.3
20260506161304 12 347 1.6 8.0 0.00 0.18 0.48 77 1016.3
20260506160803 12 123 3.2 9.7 0.00 0.18 0.48 78 1016.2
20260506160303 12 143 3.2 8.0 0.00 0.18 0.48 78 1016.2
20260506155804 12 10 1.6 4.8 0.00 0.18 0.48 79 1016.2
20260506155306 12 61 3.2 8.0 0.00 0.18 0.48 80 1016.2
20260506154803 12 235 3.2 14.5 0.00 0.18 0.48 81 1015.7
20260506154303 12 29 3.2 14.5 0.00 0.18 0.48 81 1015.7
20260506153803 12 303 3.2 8.0 0.00 0.18 0.48 82 1015.7
20260506153304 11 149 1.6 4.8 0.00 0.18 0.48 82 1015.7
20260506152803 11 123 1.6 8.0 0.00 0.18 0.48 83 1015.9
20260506152305 11 290 3.2 8.0 0.00 0.18 0.48 83 1015.9
20260506151804 11 145 3.2 14.5 0.00 0.18 0.48 84 1015.9
20260506151303 11 213 3.2 14.5 0.00 0.18 0.48 84 1015.9
20260506150304 11 163 3.2 12.9 0.00 0.18 0.48 85 1015.6
20260506145305 11 100 3.2 4.8 0.00 0.18 0.48 85 1015.6
20260506144804 11 347 3.2 4.8 0.00 0.18 0.48 88 1015.8
20260506144303 10 291 3.2 19.3 0.00 0.18 0.48 88 1015.8
20260506143803 10 303 3.2 12.9 0.00 0.18 0.48 88 1015.8
20260506142804 10 347 3.2 11.3 0.00 0.18 0.48 90 1015.8
20260506141803 10 10 3.2 8.0 0.00 0.18 0.48 91 1015.8
20260506140803 10 280 3.2 16.1 0.00 0.18 0.48 92 1016.0
20260506135306 10 308 4.8 9.7 0.00 0.18 0.48 93 1016.0
20260506134804 10 10 3.2 8.0 0.00 0.18 0.48 94 1016.0
20260506134304 9 100 1.6 8.0 0.00 0.25 0.48 94 1016.0
20260506133303 9 347 1.6 3.2 0.00 0.25 0.48 95 1016.0
20260506132804 9 347 1.6 0.0 0.00 0.33 0.48 95 1015.6
20260506132307 8 145 1.6 4.8 0.00 0.41 0.48 96 1015.6
20260506131804 8 303 1.6 4.8 0.00 0.41 0.48 96 1015.6
20260506131304 8 316 1.6 4.8 0.00 0.41 0.48 96 1015.6
20260506130803 8 303 0.0 4.8 0.00 0.41 0.48 96 1015.5
20260506125803 8 123 1.6 0.0 0.00 0.41 0.48 96 1015.5
20260506125305 8 276 1.6 0.0 0.00 0.41 0.48 96 1015.5
20260506124303 8 310 1.6 3.2 0.00 0.41 0.48 96 1015.5
20260506123304 8 224 1.6 9.7 0.00 0.41 0.48 96 1015.5
20260506122305 8 90 1.6 0.0 0.00 0.41 0.48 96 1015.0
20260506121303 8 313 1.6 4.8 0.00 0.41 0.48 96 1015.0
20260506120303 8 355 1.6 8.0 0.00 0.41 0.48 97 1015.1
20260506115804 8 325 3.2 9.7 0.00 0.41 0.48 97 1015.1
20260506115306 8 347 1.6 9.7 0.00 0.41 0.48 97 1015.1
20260506114810 8 347 1.6 9.7 0.00 0.41 0.48 97 1014.8
20260506114304 8 145 1.6 8.0 0.00 0.41 0.48 96 1014.8
20260506113804 8 145 0.0 0.0 0.00 0.41 0.48 97 1014.8
20260506113303 8 29 0.0 0.0 0.00 0.41 0.48 96 1014.8
20260506112804 8 347 0.0 8.0 0.00 0.48 0.48 96 1014.3
20260506112306 8 132 0.0 8.0 0.00 0.48 0.48 96 1014.3
20260506111804 8 347 0.0 0.0 0.00 0.48 0.48 96 1014.3
20260506111303 8 145 0.0 0.0 0.00 0.48 0.48 96 1014.3
20260506110803 8 123 0.0 3.2 0.00 0.48 0.48 96 1014.1
20260506105804 8 123 1.6 4.8 0.00 0.48 0.48 96 1014.1
20260506104304 8 145 0.0 4.8 0.00 0.48 0.48 97 1013.2
20260506103804 8 145 0.0 0.0 0.00 0.48 0.48 97 1013.2
20260506103303 8 145 1.6 0.0 0.00 0.48 0.48 97 1013.2
20260506102803 8 145 1.6 9.7 0.00 0.48 0.48 97 1013.3
20260506102305 8 134 1.6 8.0 0.00 0.48 0.48 97 1013.3
20260506101304 8 347 0.0 0.0 0.00 0.48 0.48 97 1013.3
20260506100804 8 123 0.0 0.0 0.00 0.48 0.48 97 1012.8
20260506100303 8 10 0.0 0.0 0.00 0.48 0.48 97 1012.8
20260506095804 8 190 0.0 8.0 0.00 0.48 0.48 97 1012.8
20260506094803 8 347 0.0 3.2 0.00 0.48 0.48 97 1013.3
20260506094303 8 16 0.0 0.0 0.00 0.48 0.48 97 1013.3
20260506093303 8 316 0.0 0.0 0.00 0.48 0.48 97 1013.3
20260506092804 8 347 0.0 0.0 0.00 0.48 0.48 98 1013.8
20260506092305 8 83 0.0 0.0 0.00 0.48 0.48 98 1013.8
20260506091804 7 10 0.0 0.0 0.00 0.48 0.48 98 1013.8
20260506091304 7 193 0.0 0.0 0.00 0.48 0.48 98 1013.8
20260506090804 7 325 0.0 0.0 0.00 0.48 0.48 98 1013.2
20260506090304 7 42 0.0 8.0 0.00 0.48 0.48 98 1013.2
20260506085804 7 145 0.0 8.0 0.00 0.48 0.48 98 1013.2
20260506085305 7 347 1.6 0.0 0.00 0.48 0.48 98 1013.2
20260506083803 7 347 0.0 3.2 0.00 0.48 0.48 98 1013.5
20260506083304 7 6 0.0 0.0 0.00 0.48 0.48 98 1013.5
20260506082305 8 347 0.0 3.2 0.00 0.48 0.48 98 1013.2
20260506081804 8 100 0.0 3.2 0.00 0.48 0.48 98 1013.2
20260506080804 8 190 1.6 8.0 0.00 0.48 0.48 98 1012.6
20260506073304 8 240 0.0 0.0 0.00 0.48 0.48 98 1012.6
20260506072804 8 123 0.0 0.0 0.00 0.48 0.48 98 1013.6
20260506072305 8 65 1.6 8.0 0.00 0.48 0.48 98 1013.6
20260506071804 8 325 0.0 0.0 0.00 0.48 0.48 98 1013.6
20260506071304 8 23 1.6 3.2 0.00 0.48 0.48 98 1013.6
20260506070804 8 10 1.6 8.0 0.00 0.48 0.48 98 1013.4
20260506070304 8 0 1.6 8.0 0.00 0.48 0.48 97 1013.4
20260506062305 8 2 0.0 0.0 0.00 0.48 0.48 97 1013.0
20260506061804 8 145 0.0 0.0 0.00 0.48 0.48 97 1013.0
20260506061304 8 145 0.0 0.0 0.00 0.48 0.48 97 1013.0
20260506060804 8 123 0.0 0.0 0.00 0.48 0.48 97 1013.1
20260506060304 8 176 1.6 4.8 0.00 0.48 0.48 97 1013.1
20260506044802 7 10 0.0 0.0 0.00 0.48 0.48 96 1013.1
20260506043803 7 347 0.0 0.0 0.00 0.48 0.48 96 1013.1
20260506043303 7 347 0.0 0.0 0.00 0.48 0.48 96 1013.1
20260506042803 7 123 0.0 0.0 0.00 0.48 0.48 96 1012.9
20260506042305 7 145 1.6 8.0 0.00 0.48 0.48 96 1012.9
20260506041802 7 145 0.0 4.8 0.00 0.48 0.48 95 1012.9
20260506041302 7 190 0.0 0.0 0.00 0.48 0.48 95 1012.9
20260506040803 7 190 1.6 8.0 0.00 0.48 0.48 95 1013.1
20260506034802 7 33 0.0 0.0 0.00 0.48 0.48 95 1013.4
20260506034302 7 3 0.0 3.2 0.00 0.48 0.48 95 1013.4
20260506033802 7 280 0.0 3.2 0.00 0.48 0.48 95 1013.4
20260506033302 7 340 0.0 0.0 0.00 0.48 0.48 95 1013.4
20260506032802 7 347 0.0 0.0 0.00 0.48 0.48 95 1012.6
20260506032305 7 145 0.0 0.0 0.00 0.48 0.48 95 1012.6
20260506031802 7 145 0.0 0.0 0.00 0.48 0.48 95 1012.6
20260506031302 7 115 0.0 0.0 0.00 0.48 0.48 95 1012.6
20260506030802 7 100 0.0 0.0 0.00 0.48 0.48 95 1012.2
20260506030302 7 145 0.0 0.0 0.00 0.48 0.48 95 1012.2
20260506025802 7 100 0.0 0.0 0.00 0.48 0.48 95 1012.2
20260506025305 7 145 0.0 0.0 0.00 0.48 0.48 95 1012.2
20260506024802 7 145 0.0 0.0 0.00 0.48 0.48 95 1012.3
20260506024302 7 72 0.0 3.2 0.00 0.48 0.48 95 1012.3
20260506023803 7 190 0.0 0.0 0.00 0.48 0.48 95 1012.3
20260506023302 7 175 0.0 0.0 0.00 0.48 0.48 95 1012.3
20260506022802 7 347 0.0 0.0 0.00 0.48 0.48 95 1012.3
20260506020802 7 123 0.0 0.0 0.18 0.48 0.48 94 1012.5
20260506020303 7 2 0.0 0.0 0.18 0.48 0.48 95 1012.5
20260506015803 7 145 0.0 0.0 0.18 0.48 0.48 94 1012.5
20260506015305 7 8 0.0 0.0 0.18 0.48 0.48 94 1012.5
20260506014802 7 10 0.0 0.0 0.18 0.48 0.48 94 1012.4
20260506014302 7 135 1.6 8.0 0.18 0.48 0.48 94 1012.4
20260506013302 7 116 0.0 0.0 0.18 0.48 0.48 93 1012.4
20260506012802 7 10 0.0 3.2 0.18 0.48 0.48 93 1011.6
20260506012307 7 330 1.6 0.0 0.18 0.48 0.48 93 1011.6
20260506011302 7 17 1.6 8.0 0.10 0.41 0.41 93 1011.6
20260506005802 7 347 1.6 9.7 0.00 0.33 0.33 93 1011.8
20260506005305 7 357 3.2 8.0 0.00 0.33 0.33 93 1011.8
20260506004802 7 347 4.8 9.7 0.00 0.33 0.33 93 1012.0
20260506004303 7 311 4.8 14.5 0.00 0.33 0.33 93 1012.0
20260506003802 8 280 4.8 11.3 0.00 0.33 0.33 93 1012.0
20260506003302 8 243 1.6 8.0 0.00 0.33 0.33 93 1012.0
20260506002802 8 55 0.0 4.8 0.00 0.33 0.33 93 1010.8
20260506002305 8 347 0.0 0.0 0.00 0.33 0.33 93 1010.8
20260506001802 8 347 3.2 8.0 0.00 0.33 0.33 93 1010.8
20260506001303 8 107 3.2 4.8 0.00 0.33 0.33 93 1010.8
20260506000803 8 303 1.6 8.0 0.00 0.33 0.33 93 1010.7
20260506000302 8 318 0.0 4.8 0.00 0.33 0.33 93 1010.7
20260505235802 8 123 1.6 0.0 0.00 0.33 0.33 93 1010.7
20260505235305 8 347 1.6 8.0 0.00 0.33 0.33 93 1010.7
20260505234802 8 347 3.2 3.2 0.00 0.33 0.33 92 1009.8
20260505234305 10 347 0.0 0.0 0.00 0.33 0.33 88 1010.0
20260505233304 10 0 0.0 0.0 0.00 0.33 0.33 88 1010.0
20260505223803 10 190 1.6 4.8 0.00 0.33 0.33 87 1010.0
20260505222802 10 77 1.6 9.7 0.00 0.33 0.33 87 1009.5
20260505221803 10 145 1.6 0.0 0.00 0.33 0.33 88 1009.5
20260505221303 9 325 3.2 8.0 0.00 0.33 0.33 88 1009.5
20260505220803 9 325 3.2 8.0 0.00 0.33 0.33 87 1009.9
20260505220303 9 75 3.2 9.7 0.00 0.33 0.33 87 1009.9
20260505215305 9 318 1.6 8.0 0.00 0.33 0.33 87 1009.9
20260505214802 9 123 1.6 0.0 0.00 0.33 0.33 87 1009.6
20260505213802 10 145 0.0 0.0 0.00 0.33 0.33 87 1009.6
20260505213302 10 276 1.6 4.8 0.00 0.33 0.33 88 1009.6
20260505212803 10 303 1.6 4.8 0.00 0.33 0.33 89 1010.3
20260505212305 9 347 1.6 8.0 0.00 0.33 0.33 87 1010.3
20260505211802 9 325 3.2 0.0 0.00 0.33 0.33 87 1010.3
20260505211303 9 356 4.8 9.7 0.00 0.33 0.33 87 1010.3
20260505210302 9 347 3.2 8.0 0.00 0.33 0.33 86 1010.8
20260505205305 9 256 4.8 14.5 0.00 0.33 0.33 85 1010.8